Regional Weather Roundup
Issued by NWS

Home | Current Version | Previous Version | Text Only | Print | Product List | Glossary On
Versions: 1 2 3 4 5 6 7 8 9 10 11 12 13 14 15 16 17 18 19 20 21 22 23 24 25 26 27 28 29 30 31 32 33 34 35 36 37 38 39 40 41 42 43 44 45 46 47 48 49 50
199
ASUS44 KJAN 271610
RWRMS

MISSISSIPPI HOURLY WEATHER ROUNDUP
NATIONAL WEATHER SERVICE JACKSON MS
1100 AM CDT FRI MAR 27 2015

NOTE: "FAIR: INDICATES FEW OR NO CLOUDS BELOW 12,000 FEET WITH NO
SIGNIFICANT WEATHER AND/OR OBSTRUCTIONS TO VISIBILITY.

MSZ001>002-007>008-010>013-018>021-025>028-034>036-271700-
NORTHWEST MISSISSIPPI

CITY           SKY/WX    TMP DP  RH WIND       PRES   REMARKS
CLARKSDALE     PTSUNNY   48  37  66 NW3       30.13R
CLEVELAND      PTSUNNY   50  38  63 CALM      30.11S
GREENWOOD      SUNNY     52  33  48 N5        30.10S
GREENVILLE     PTSUNNY   51  34  52 E6        30.11S
OLIVE BRANCH   CLOUDY    45  37  76 NW12      30.09S
OXFORD         FAIR      48  32  53 N9G16     30.11R
TUNICA         PTSUNNY   48  36  61 N5        30.12S
$$

MSZ003>006-009-014>017-022>024-029>033-037>039-271700-
NORTHEAST MISSISSIPPI

CITY           SKY/WX    TMP DP  RH WIND       PRES   REMARKS
COLUMBUS AFB   SUNNY     52  32  46 N12G21    30.04S
CORINTH        PTSUNNY   48  34  57 NW10G17   30.05S
GOLDN TRIANGLE SUNNY     54  34  47 N14G23    30.05S
STARKVILLE     FAIR      50  34  53 N7G20     30.07R
TUPELO         CLOUDY    50  30  46 N17       30.06R
$$

MSZ040-058-271700-
CENTRAL MISSISSIPPI

CITY           SKY/WX    TMP DP  RH WIND       PRES   REMARKS
JACKSON INTL   SUNNY     53  33  46 N8        30.10R
JACKSON HAWKNS SUNNY     53  35  50 NW7       30.10S
MERIDIAN KEY   SUNNY     55  30  38 N9G21     30.05R
MERIDIAN NAS   SUNNY     55  30  38 N14       30.01F
RAYMOND        FAIR      52  48  87 NW7       30.10F
VICKSBURG      SUNNY     53  36  52 N8        30.13S
$$

MSZ059>079-271700-
SOUTH MISSISSIPPI

CITY           SKY/WX    TMP DP  RH WIND       PRES   REMARKS
BROOKHAVEN     FAIR      54  39  58 N9        30.10S
HATTIESBURG    SUNNY     56  35  45 N7G17     30.06F
MCCOMB         SUNNY     56  33  42 NW12      30.09R
NATCHEZ        SUNNY     55  36  47 NW6       30.12S
PINE BELT      SUNNY     55  32  41 NW6       30.06S
$$

MSZ080>082-271700-
COASTAL MISSISSIPPI

CITY           SKY/WX    TMP DP  RH WIND       PRES   REMARKS
BAY ST LOUIS   SUNNY     57  36  44 N12G17    30.05R
BILOXI         SUNNY     59  41  51 N15       30.02S
PASCAGOULA     SUNNY     60  44  55 NW10G17   30.02S
GULFPORT       SUNNY     59  39  47 N16G25    30.03S
$$



USA.gov is the U.S. government's official web portal to all federal, state and local government web resources and services.